Location: Mountain View
(37.3861°N, 122.0839°W)
Time: 20:08:27
(UTC-07:00)

Envisat - Pass Details

Date: 11 May 2026
Orbit: 761 x 763 km, 98.4° (Epoch: 9 June)

Event Time Altitude Azimuth Distance (km) Brightness Sun altitude
Rises 04:28:26 0° 2° (N) 3,230 6.9 -16.8°
Reaches altitude 10° 04:30:55 10° 353° (N) 2,300 5.9 -16.4°
Maximum altitude 04:35:24 33° 291° (WNW) 1,259 3.8 -15.7°
Enters shadow 04:37:35 23° 247° (WSW) 1,563 4.0 -15.4°
